Regional Weather Roundup
Issued by NWS

Home | Current Version | Previous Version | Graphics & Text | Print | Product List | Glossary On
Versions: 1 2 3 4 5 6 7 8 9 10 11 12 13 14 15 16 17 18 19 20 21 22 23 24 25 26 27 28 29 30 31 32 33 34 35 36 37 38 39 40 41 42 43 44 45 46 47 48 49 50
000
ASUS43 KMPX 231510
RWRMN
WEATHER ROUNDUP FOR MINNESOTA
NATIONAL WEATHER SERVICE TWIN CITIES/CHANHASSEN MN
1000 AM CDT SAT SEP 23 2017


NOTE: "FAIR" INDICATES FEW OR NO CLOUDS BELOW 12,000 FEET WITH NO
SIGNIFICANT WEATHER AND/OR OBSTRUCTIONS TO VISIBILITY. N/A MEANS
CURRENT SKY AND/OR WEATHER CONDITIONS ARE NOT AVAILABLE.

MNZ060>063-068>070-231600-
   Twin Cities Metro

CITY           SKY/WX    TMP DP  RH WIND       PRES   REMARKS
TWIN CITIES    PTSUNNY   79  70  74 S7        29.97F
ST PAUL        CLOUDY    78  70  76 S3        29.97S
CRYSTAL        MOSUNNY   78  66  66 S10       29.95S
BLAINE         PTSUNNY   81  70  69 S10G18    29.96S
LAKEVILLE      MOSUNNY   79  68  69 SW7       29.98S
EDEN PRAIRIE   MOSUNNY   78  69  73 S10       29.96S
SOUTH ST PAUL  MOSUNNY   78  68  70 S7        29.97S
LAKE ELMO      FAIR      77  70  78 SW8       29.99S
$$
MNZ001>005-007-008-013>017-022>024-027-028-231600-
   Northwest Minnesota

CITY           SKY/WX    TMP DP  RH WIND       PRES   REMARKS
BEMIDJI        CLOUDY    53  53  97 N8        29.93F
HALLOCK          N/A     54  48  82 NW14G20   30.03R
ROSEAU         CLOUDY    52  48  87 W7        29.99R FOG
WARROAD        CLOUDY    52  48  87 W7        29.99R
CROOKSTON      CLOUDY    52  48  87 N14       30.02R
FOSSTON        CLOUDY    48  48 100 W7        30.02R
DETROIT LAKES  CLOUDY    50  50 100 NW14      30.01R FOG
MOORHEAD       CLOUDY    52  48  87 N10       30.04S
PARK RAPIDS    LGT RAIN  56  54  93 SW3       29.98R
MAHNOMEN       CLOUDY    50  49  97 NW6       30.02R
$$
MNZ006-009>011-018-025>026-231600-
   North Central Minnesota

CITY           SKY/WX    TMP DP  RH WIND       PRES   REMARKS
BAUDETTE       CLOUDY    54  53  97 W12       29.97R
FLAG ISLAND    CLOUDY    54  52  94 NW12      29.94F
INTL FALLS     CLOUDY    57  55  93 W7G18     29.93S
WASKISH        CLOUDY    55  54  94 W8        29.98R
BIG FORK       LGT RAIN  57  57 100 SW6       29.97R
LONGVILLE      CLOUDY    59  57  94 CALM      29.91F
GRAND RAPIDS   CLOUDY    67  64  90 NW8       29.96R
CRANE LAKE     CLOUDY    63  61  94 NW5       29.90F
ORR            CLOUDY    61  57  88 NW10      29.89F
COOK           CLOUDY    66  64  94 SW5       29.91R
WALKER         CLOUDY    55  54  96 W8        29.96R
$$
MNZ012-019>021-037-231600-
   Northeast Minnesota

CITY           SKY/WX    TMP DP  RH WIND       PRES   REMARKS
DULUTH         CLOUDY    74  70  87 W8        29.95F
ELY            CLOUDY    66  64  94 SW6       29.92S
HIBBING        CLOUDY    66  65  96 CALM      29.93F
EVELETH        CLOUDY    68  63  84 SW6       29.95S
DULUTH HARBOR  MOSUNNY   75  72  88 SW8       29.92S
TWO HARBORS    CLOUDY    81  72  74 W9        29.92R
GRAND MARAIS     N/A     64  63  96 SW5       29.90S
G MARAIS ARPRT MOSUNNY   70  61  73 SW5       29.96R
$$
MNZ029>031-032-039>041-046>048-054>057-064-231600-
   West Central Minnesota

CITY           SKY/WX    TMP DP  RH WIND       PRES   REMARKS
FERGUS FALLS   DRIZZLE   52  52 100 NW10      30.02R
WHEATON        LGT RAIN  54  50  87 NW12      30.03R
MORRIS         CLOUDY    57  55  94 N8        29.98R
ALEXANDRIA     CLOUDY    59  57  93 NW7       29.98R
ELBOW LAKE     CLOUDY    54  54  98 W9        30.00S
WADENA         CLOUDY    55  55 100 W3        29.99R
GLENWOOD       CLOUDY    61  57  88 NW8       29.98R
APPLETON       CLOUDY    61  54  77 NW6       29.98R
BENSON         CLOUDY    63  55  77 N3        29.98S
ORTONVILLE     CLOUDY    55  54  94 N7        30.00R
MADISON        CLOUDY    61  61 100 N5        29.99R
WILLMAR        FAIR      66  63  88 SW6       29.98R
$$
MNZ033>034-036-042>043-049>051-058-059-231600-
   Central Minnesota

CITY           SKY/WX    TMP DP  RH WIND       PRES   REMARKS
ST CLOUD       PTSUNNY   74  70  87 S6        29.94S
SAUK CENTRE    CLOUDY    63  61  94 W5        29.97R
PAYNESVILLE    CLOUDY    70  64  83 SE3       29.96R
AITKIN         CLOUDY    70  64  83 CALM      29.93F
PINE RIVER     CLOUDY    57  55  94 CALM      29.97F
BRAINERD       CLOUDY    66  63  90 CALM      29.93F
STAPLES        CLOUDY    57  55  94 W12       29.98R
LITTLE FALLS   PTSUNNY   68  61  77 CALM      29.94S
LITCHFIELD     CLOUDY    72  66  83 E3        29.96S
BUFFALO        MOSUNNY   76  68  75 S7        29.96F
MAPLE LAKE     MOSUNNY   76  70  82 S7        29.95F
HUTCHINSON     SUNNY     73  69  87 SE5       29.97S
$$
MNZ037-044-045-052-053-231600-
   East Central Minnesota

CITY           SKY/WX    TMP DP  RH WIND       PRES   REMARKS
PRINCETON      CLOUDY    79  70  73 S7        29.94F
MORA           MOSUNNY   73  66  78 S8        29.96F
CAMBRIDGE      PTSUNNY   81  66  61 S8        29.95S
RUSH CITY      MOSUNNY   77  68  75 S6        29.96R
MOOSE LAKE     MOSUNNY   75  68  78 S6        29.93S
HINCKLEY       FAIR      77  70  78 S8        29.95S
CLOQUET        MOSUNNY   73  66  78 S6        29.95S
MCGREGOR       CLOUDY    72  64  78 CALM      29.95S
$$
MNZ071>073-080-081-089-090-097-098-231600-
   Southwest Minnesota

CITY           SKY/WX    TMP DP  RH WIND       PRES   REMARKS
MONTEVIDEO     CLOUDY    63  61  94 N3        29.98R
GRANITE FALLS  PTSUNNY   64  58  81 NW6       30.00R
CANBY          CLOUDY    60  56  89 NE3       29.99S
MARSHALL       MOSUNNY   62  56  80 CALM      29.99R
REDWOOD FALLS  CLOUDY    66  59  78 SE5       29.97R
OLIVIA         MOSUNNY   70  63  78 SE7       29.95S
PIPESTONE      CLOUDY    66  61  82 SE7       29.97F
WINDOM         MOSUNNY   64  59  82 N6        30.00R
WORTHINGTON    CLOUDY    64  60  87 N8        30.00R
JACKSON        MOSUNNY   75  66  73 S3        30.00R
TRACY          CLOUDY    63  59  87 S6        29.99S
SLAYTON        CLOUDY    61  51  67 CALM      30.01R
$$
MNZ065>067-074>077-082>085-091>093-231600-
   South Central Minnesota

CITY           SKY/WX    TMP DP  RH WIND       PRES   REMARKS
MANKATO        PTSUNNY   76  69  79 SW7       29.99R
NEW ULM        CLOUDY    68  64  88 NW3       29.98R
ST JAMES       MOSUNNY   73  66  78 W5        29.99R
FAIRMONT       SUNNY     77  68  73 MISG      29.99R
FARIBAULT      MOSUNNY   79  70  73 S6        29.99F
OWATONNA       MOSUNNY   79  70  73 S7        30.00S
WASECA         MOSUNNY   77  68  73 S10       30.01S
ALBERT LEA     MOSUNNY   81  70  69 S9        30.01R
$$
MNZ078>079-086>088-094>096-231600-
   Southeast Minnesota

CITY           SKY/WX    TMP DP  RH WIND       PRES   REMARKS
ROCHESTER      SUNNY     80  68  66 S14       30.03S
RED WING       MOSUNNY   79  64  61 SW3       29.98S
STANTON        MOSUNNY   79  69  70 S6        29.98S
DODGE CENTER   MOSUNNY   81  66  61 SW12      30.01F
WINONA         SUNNY     81  64  57 S6        30.02S
AUSTIN         SUNNY     79  68  69 S12       30.01S
PRESTON        SUNNY     78  66  67 SW9       30.05S
$$
ABBREVIATIONS USED IN REMARKS
   TC - TEMPERATURES IN CELSIUS
  WCI - WIND CHILL INDEX
   HX - HEAT INDEX
  VSB - VISIBILITY
$$




USA.gov is the U.S. government's official web portal to all federal, state and local government web resources and services.